User: anonymous   Login
Location: Oshawa
(43.9000°N, 78.8670°W)
Time: 02:20:08
(UTC-05:00)
Language:

Cosmos 1408 Rocket - Orbit

View from above orbital plane
View from above orbital plane
View from above satellite
View from above satellite

Ground track
Ground track

The orbit data is extracted from the following two-line orbital elements,

1 13553U 82092B   15061.18741071  .00000501  00000-0  57409-4 0  9995
2 13553 082.5687 294.6910 0020212 295.6531 182.8255 14.83804653752753
Epoch (UTC): 02 March 2015 04:29:52
Eccentricity: 0.0020212
inclination: 82.5687°
perigee height: 603 km
apogee height: 631 km
right ascension of ascending node: 294.6910°
argument of perigee: 295.6531°
revolutions per day: 14.83804653
mean anomaly at epoch: 182.8255°
orbit number at epoch: 75275

The dashed part of the orbit path shows where the satellite is in the earth's shadow,  

DLR